Location: Observatory
(52.1446°N, 0.4624°W)
Time: 22:33:15
(UTC+01:00)

N. Korean satellite - Visible Passes

Search period start: 21 October 2017 00:00
Search period end: 30 October 2017 23:00
Orbit: 459 x 517 km, 97.2° (Epoch: 21 October)

Date Brightness Start Highest point End Pass type
(mag) Time Alt. Az. Time Alt. Az. Time Alt. Az.
21 Oct 6.6 18:34:17 10° SSE 18:37:43 55° ENE 18:41:08 10° N visible
21 Oct 9.9 20:09:43 10° WSW 20:11:36 14° W 20:13:27 10° WNW visible
22 Oct 9.1 19:45:11 10° SSW 19:48:03 23° W 19:50:54 10° NW visible
23 Oct 9.7 07:06:36 10° NE 07:09:11 19° E 07:11:45 10° SE visible
23 Oct 7.9 19:21:15 10° S 19:24:34 41° W 19:27:53 10° NNW visible
24 Oct 10.3 06:44:32 10° ENE 06:45:35 11° E 06:46:40 10° ESE visible
24 Oct 6.6 18:57:41 10° S 19:01:10 79° WSW 19:04:39 10° NNW visible
25 Oct 6.5 18:34:25 10° SSE 18:37:49 55° ENE 18:41:14 10° N visible
25 Oct 9.9 20:09:55 10° WSW 20:11:42 13° W 20:13:30 10° WNW visible
26 Oct 9.1 19:45:19 10° SSW 19:48:09 23° W 19:50:58 10° NW visible
27 Oct 9.7 07:06:39 10° NE 07:09:17 19° E 07:11:55 10° SE visible
27 Oct 7.9 19:21:22 10° S 19:24:39 40° W 19:27:57 10° NNW visible
28 Oct 10.3 06:44:28 10° ENE 06:45:41 11° E 06:46:54 10° ESE visible
28 Oct 6.6 18:57:47 10° S 19:01:13 78° WSW 19:04:42 10° NNW visible
29 Oct 6.5 17:34:29 10° SSE 17:37:52 56° ENE 17:41:17 10° N visible
29 Oct 9.9 19:10:01 10° WSW 19:11:46 13° W 19:13:31 10° WNW visible
30 Oct 7.2 17:11:30 10° SE 17:14:35 31° ENE 17:17:41 10° N visible
30 Oct 9.1 18:45:23 10° SSW 18:48:11 23° W 18:50:59 10° NW visible
